sat.trackr.live / text

‹ back to catalog

KUIPER-00178

NORAD 67767 · 2026-030D

PAYLOAD ACTIVE UNKNOWN

§ Identity

Operator
Country
US
Launch date
2026-02-12
Launch site
FRGUI
Launch vehicle
Mass (kg)
RCS (m²)

External: N2YO · Heavens-Above · Gunter

§ Orbital elements

Epoch: 2026-09-20T21:08:05.829792Z

Period
97.30 min
Inclination
51.9003°
Eccentricity
0.0000671
Mean motion
14.79931375 rev/d
Perigee alt
629.1 km
Apogee alt
630.0 km
Semi-major
7,007.7 km
B*
4.5639e-5
RAAN
69.9732°
Arg perigee
85.0673°
Mean anomaly
275.0366°
Rev number
3,408

§ Raw data

KUIPER-001781 67767U 26030D   26263.88062303  .00000127  00000+0  45639-4 0  99932 67767  51.9003  69.9732 0000671  85.0673 275.0366 14.79931375 34085

JSON: /api/v1/satellites/67767 · /tle

For live sub-satellite position, see the globe view (requires WebGL).

§ Visibility from observer

Set your observer location to see the next 7 days of passes ≥ 10°. The values pass through the URL so the page stays shareable.

No JS? Fill the form by hand. The geolocation button needs JavaScript.